Weather History for Covington, KY

Change the Weather History Date:

Saturday, January 19, 2013

  Actual Average Record
Temperature  
Mean Temperature 45 °F 31 °F  
Max Temperature 54 °F 39 °F 72 °F (1907)
Min Temperature 36 °F 23 °F -24 °F (1994)
Degree Days  
Heating Degree Days 20 34  
Month to date heating degree days 547 646  
Since 1 July heating degree days 2413 2565  
Cooling Degree Days 0 0  
Month to date cooling degree days 0 0  
Year to date cooling degree days 0 0  
Moisture  
Dew Point 25 °F    
Average Humidity 46    
Maximum Humidity 59    
Minimum Humidity 32    
Precipitation  
Precipitation 0.00 in 0.10 in 1.57 in (1907)
Month to date precipitation 1.98 1.86  
Year to date precipitation 1.98 1.86  
Snow  
Snow 0.00 in 0.20 in 5.50 in (1956)
Month to date snowfall 0.4 3.7  
Since 1 July snowfall 8.0 9.3  
Snow Depth 0.00 in    
Sea Level Pressure  
Sea Level Pressure 30.08 in    
Wind  
Wind Speed 15 mph (SSW)    
Max Wind Speed 25 mph    
Max Gust Speed 36 mph    
Visibility 10 miles    
Events      
T = Trace of Precipitation, MM = Missing Value Source: NWS Daily Summary

Daily Weather History Graph

Daily Weather History Graph

Search for Another Location

Airport:

Trip Planner

Search our weather history database for the weather conditions in past years. The results will help you decide how hot, cold, wet, or windy it might be!

Date:

Astronomy

Jan. 19, 2013 Rise Set
Actual Time 7:54 AM EST 5:45 PM EST
Civil Twilight 7:25 AM EST 6:14 PM EST
Nautical Twilight 6:52 AM EST 6:46 PM EST
Astronomical Twilight 6:20 AM EST 7:18 PM EST
Moon 12:10 PM EST (1/19) 1:28 AM EST (1/19)
Length of Visible Light 10h 48m
Length of Day
9h 50m
First Quarter, 57% of the Moon is Illuminated
Jan 19
First Quarter
Jan 26
Full
Feb 3
Last Quarter
Feb 10
New
Feb 17
First Quarter

Hourly Weather History & Observations

Time (EST) Temp. Windchill Dew Point Humidity Pressure Visibility Wind Dir Wind Speed Gust Speed Precip Events Conditions
12:52 AM 37.9 °F 30.0 °F 23.0 °F 55% 30.25 in 10.0 mi SSW 12.7 mph 23.0 mph N/A   Clear
1:52 AM 37.9 °F 28.5 °F 23.0 °F 55% 30.24 in 10.0 mi SSW 17.3 mph 27.6 mph N/A   Clear
3:52 AM 37.9 °F 29.6 °F 24.1 °F 57% 30.22 in 10.0 mi SSW 13.8 mph - N/A   Clear
4:52 AM 37.9 °F 29.6 °F 24.1 °F 57% 30.21 in 10.0 mi SSW 13.8 mph 21.9 mph N/A   Clear
5:52 AM 37.0 °F 29.3 °F 24.1 °F 59% 30.22 in 10.0 mi SSW 11.5 mph - N/A   Clear
7:52 AM 37.0 °F 28.5 °F 25.0 °F 62% 30.20 in 10.0 mi SSW 13.8 mph 20.7 mph N/A   Clear
8:52 AM 37.9 °F 30.5 °F 25.0 °F 60% 30.21 in 10.0 mi SSW 11.5 mph - N/A   Clear
9:52 AM 41.0 °F 32.8 °F 26.1 °F 55% 30.21 in 10.0 mi SSW 16.1 mph 23.0 mph N/A   Clear
10:52 AM 45.0 °F 38.9 °F 27.0 °F 49% 30.19 in 10.0 mi SSW 12.7 mph 24.2 mph N/A   Clear
12:52 PM 50.0 °F - 25.0 °F 38% 30.09 in 10.0 mi SW 15.0 mph 26.5 mph N/A   Clear
1:52 PM 52.0 °F - 25.0 °F 35% 30.05 in 10.0 mi SSW 16.1 mph 28.8 mph N/A   Clear
2:52 PM 53.1 °F - 25.0 °F 34% 30.01 in 10.0 mi SSW 19.6 mph 27.6 mph N/A   Clear
3:52 PM 53.6 °F - 24.8 °F 33% 29.98 in 10.0 mi SSW 17.3 mph 29.9 mph N/A   Clear
4:52 PM 53.1 °F - 24.1 °F 32% 29.96 in 10.0 mi SSW 19.6 mph 35.7 mph N/A   Partly Cloudy
5:52 PM 50.0 °F - 24.1 °F 36% 29.95 in 10.0 mi SSW 19.6 mph 25.3 mph N/A   Partly Cloudy
6:52 PM 50.0 °F - 25.0 °F 38% 29.94 in 10.0 mi SSW 15.0 mph 25.3 mph N/A   Partly Cloudy
7:52 PM 48.9 °F - 26.1 °F 41% 29.96 in 10.0 mi SSW 15.0 mph 24.2 mph N/A   Partly Cloudy
8:52 PM 48.0 °F - 27.0 °F 44% 29.96 in 10.0 mi SSW 16.1 mph 25.3 mph N/A   Clear
9:52 PM 46.9 °F - 27.0 °F 46% 29.95 in 10.0 mi SSW 15.0 mph 25.3 mph N/A   Clear
10:52 PM 46.0 °F 39.3 °F 27.0 °F 47% 29.95 in 10.0 mi SW 16.1 mph 21.9 mph N/A   Clear
11:52 PM 46.0 °F 39.6 °F 27.0 °F 47% 29.95 in 10.0 mi SW 15.0 mph 24.2 mph N/A   Clear